QPF
0.00 0.00 0.00 0.00 0.00 0.00 0.00 0.00 0.00 0.00 0.00 0.00 0.00 0.00 0.00 0.00 0.00 0.00 0.00 0.00 0.00 0.00 0.00 0.00 0.00 0.01 0.00 0.00 0.00 0.00 0.00 0.00 0.00 0.00 0.00 0.00 0.00 0.00 0.00 0.00 0.01 0.00 0.00 0.00 0.00 0.00 0.00 0.00 0.00
0.00 0.00 0.00 0.00 0.00 0.00 0.00 0.00 0.00 0.00 0.00 0.00 0.00 0.00 0.00 0.00 0.00 0.00 0.00 0.00 0.00 0.00 0.00 0.00 0.00 0.00 0.00 0.00 0.00 0.00 0.00 0.00 0.00 0.00 0.00 0.00 0.00 0.00 0.00 0.00 0.00 0.00 0.00 0.00 0.00 0.00 0.00 0.00 0.00
0.00 0.00 0.00 0.00 0.00 0.00 0.00 0.00 0.00 0.00 0.00 0.00 0.00 0.00 0.00 0.00 0.00 0.00 0.00 0.00 0.00 0.00 0.00 0.00 0.00 0.01 0.00 0.00 0.00 0.00 0.00 0.00 0.00 0.00 0.00 0.00 0.00 0.00 0.00 0.00 0.00 0.00 0.00 0.00 0.00 0.00 0.00 0.00 0.00
0.00 0.00 0.00 0.00 0.00 0.00 0.00 0.00 0.00 0.00 0.00 0.00 0.00 0.00 0.00 0.00 0.00 0.00 0.00 0.00 0.00 0.00 0.00 0.00 0.00 0.01 0.00 0.00 0.00 0.00 0.00 0.00 0.00 0.00 0.00 0.00 0.00 0.00 0.00 0.00 0.00 0.00 0.00 0.00 0.00 0.00 0.00 0.00 0.00
0.00 0.00 0.00 0.00 0.00 0.00 0.00 0.00 0.00 0.00 0.00 0.00 0.00 0.00 0.00 0.00 0.00 0.00 0.00 0.00 0.00 0.00 0.00 0.00 0.00 0.01 0.01 0.01 0.00 0.00 0.00 0.00 0.00 0.00 0.00 0.00 0.00 0.00 0.00 0.01 0.00 0.00 0.00 0.00 0.00 0.00 0.00 0.00 0.00
0.00 0.00 0.00 0.00 0.00 0.00 0.00 0.00 0.00 0.00 0.00 0.00 0.00 0.00 0.00 0.00 0.00 0.00 0.00 0.00 0.00 0.00 0.00 0.00 0.00 0.00 0.01 0.01 0.00 0.00 0.00 0.00 0.00 0.00 0.01 0.01 0.00 0.00 0.00 0.00 0.00 0.00 0.00 0.00 0.00 0.00 0.00 0.00 0.00
0.00 0.00 0.00 0.00 0.00 0.00 0.00 0.00 0.00 0.00 0.00 0.00 0.00 0.00 0.00 0.00 0.00 0.00 0.00 0.00 0.00 0.00 0.00 0.00 0.00 0.00 0.01 0.01 0.00 0.00 0.00 0.00 0.00 0.00 0.01 0.00 0.00 0.00 0.00 0.00 0.00 0.00 0.00 0.00 0.00 0.00 0.00 0.00 0.00
0.00 0.00 0.00 0.00 0.00 0.00 0.00 0.00 0.00 0.00 0.00 0.00 0.00 0.00 0.00 0.01 0.01 0.00 0.00 0.00 0.00 0.00 0.00 0.00 0.00 0.00 0.00 0.00 0.00 0.00 0.00 0.00 0.00 0.00 0.00 0.00 0.00 0.00 0.00 0.00 0.00 0.00 0.00 0.00 0.00 0.00 0.00 0.00 0.00
0.00 0.00 0.00 0.00 0.00 0.00 0.00 0.00 0.00 0.00 0.00 0.00 0.00 0.00 0.00 0.00 0.00 0.00 0.00 0.00 0.00 0.00 0.00 0.00 0.00 0.00 0.00 0.00 0.00 0.00 0.00 0.00 0.00 0.00 0.00 0.00 0.00 0.00 0.00 0.00 0.00 0.00 0.00 0.00 0.00 0.00 0.00 0.00 0.00
0.00 0.00 0.00 0.00 0.00 0.00 0.00 0.00 0.00 0.00 0.00 0.00 0.00 0.00 0.00 0.00 0.00 0.00 0.00 0.00 0.00 0.00 0.00 0.00 0.00 0.00 0.00 0.00 0.00 0.00 0.00 0.00 0.00 0.00 0.00 0.00 0.00 0.00 0.00 0.00 0.00 0.00 0.00 0.00 0.00 0.00 0.00 0.00 0.00
0.00 0.00 0.00 0.00 0.00 0.00 0.00 0.00 0.00 0.00 0.00 0.00 0.00 0.00 0.00 0.00 0.00 0.00 0.00 0.00 0.00 0.00 0.00 0.00 0.00 0.00 0.00 0.00 0.00 0.00 0.00 0.00 0.00 0.00 0.00 0.00 0.00 0.00 0.00 0.00 0.00 0.00 0.00 0.00 0.00 0.00 0.00 0.00 0.00
0.00 0.00 0.00 0.00 0.00 0.00 0.00 0.00 0.00 0.00 0.00 0.00 0.00 0.00 0.00 0.00 0.00 0.00 0.00 0.00 0.00 0.00 0.00 0.00 0.00 0.00 0.00 0.00 0.00 0.00 0.00 0.00 0.00 0.00 0.00 0.00 0.00 0.00 0.00 0.00 0.00 0.00 0.00 0.00 0.00 0.00 0.00 0.00 0.00
0.00 0.00 0.00 0.00 0.00 0.00 0.00 0.00 0.00 0.00 0.00 0.00 0.00 0.00 0.00 0.00 0.00 0.00 0.00 0.00 0.00 0.00 0.00 0.00 0.00 0.00 0.00 0.00 0.00 0.00 0.00 0.00 0.00 0.00 0.00 0.00 0.00 0.00 0.00 0.00 0.00 0.00 0.00 0.00 0.00 0.00 0.00 0.00 0.00
0.00 0.00 0.00 0.00 0.00 0.00 0.00 0.00 0.00 0.00 0.00 0.00 0.00 0.00 0.00 0.00 0.00 0.00 0.00 0.00 0.00 0.00 0.00 0.00 0.00 0.00 0.00 0.00 0.00 0.00 0.00 0.00 0.00 0.00 0.00 0.00 0.00 0.00 0.00 0.00 0.00 0.00 0.00 0.00 0.00 0.00 0.00 0.00 0.00
0.00 0.00 0.00 0.00 0.00 0.00 0.00 0.00 0.00 0.00 0.00 0.00 0.00 0.00 0.00 0.00 0.00 0.00 0.00 0.00 0.00 0.00 0.00 0.00 0.00 0.00 0.00 0.01 0.00 0.00 0.00 0.00 0.00 0.00 0.00 0.00 0.00 0.00 0.00 0.00 0.00 0.00 0.00 0.00 0.00 0.00 0.00 0.00 0.00
0.00 0.00 0.00 0.00 0.00 0.00 0.00 0.00 0.00 0.00 0.00 0.00 0.00 0.00 0.00 0.00 0.00 0.00 0.00 0.00 0.00 0.00 0.00 0.00 0.00 0.00 0.00 0.00 0.00 0.00 0.00 0.00 0.00 0.00 0.00 0.00 0.00 0.00 0.00 0.00 0.00 0.00 0.00 0.00 0.00 0.00 0.00 0.00 0.00
0.00 0.00 0.00 0.00 0.00 0.00 0.00 0.00 0.00 0.00 0.00 0.00 0.00 0.00 0.00 0.00 0.00 0.00 0.00 0.01 0.00 0.00 0.00 0.00 0.00 0.00 0.00 0.00 0.00 0.00 0.00 0.00 0.00 0.00 0.00 0.00 0.00 0.00 0.00 0.00 0.00 0.00 0.00 0.00 0.00 0.00 0.00 0.00 0.00
0.00 0.00 0.00 0.00 0.00 0.00 0.00 0.00 0.00 0.00 0.00 0.00 0.00 0.00 0.00 0.00 0.00 0.00 0.00 0.01 0.01 0.00 0.00 0.00 0.00 0.00 0.00 0.00 0.00 0.00 0.00 0.00 0.00 0.00 0.00 0.00 0.00 0.00 0.00 0.00 0.00 0.00 0.00 0.00 0.00 0.00 0.00 0.00 0.00
0.00 0.00 0.00 0.00 0.00 0.00 0.00 0.00 0.00 0.00 0.00 0.00 0.00 0.00 0.00 0.00 0.00 0.00 0.00 0.00 0.04 0.01 0.00 0.00 0.01 0.02 0.01 0.02 0.01 0.00 0.00 0.00 0.00 0.00 0.00 0.00 0.00 0.00 0.00 0.00 0.00 0.00 0.00 0.00 0.00 0.00 0.00 0.00 0.00
0.00 0.00 0.00 0.00 0.00 0.00 0.00 0.00 0.00 0.00 0.00 0.00 0.00 0.00 0.00 0.00 0.00 0.00 0.00 0.00 0.01 0.00 0.00 0.00 0.01 0.02 0.02 0.03 0.02 0.00 0.00 0.00 0.00 0.00 0.00 0.00 0.00 0.00 0.00 0.00 0.00 0.00 0.00 0.00 0.00 0.00 0.00 0.00 0.00
0.00 0.00 0.00 0.00 0.00 0.00 0.00 0.00 0.00 0.00 0.00 0.00 0.00 0.00 0.00 0.00 0.00 0.00 0.00 0.00 0.02 0.01 0.01 0.01 0.01 0.01 0.02 0.02 0.01 0.01 0.01 0.00 0.00 0.00 0.00 0.00 0.00 0.00 0.00 0.00 0.00 0.00 0.00 0.00 0.00 0.00 0.00 0.00 0.00
0.00 0.00 0.00 0.00 0.00 0.00 0.00 0.00 0.00 0.00 0.00 0.00 0.00 0.00 0.00 0.00 0.00 0.00 0.00 0.00 0.02 0.03 0.03 0.02 0.01 0.00 0.00 0.00 0.01 0.03 0.01 0.00 0.00 0.00 0.00 0.00 0.00 0.00 0.00 0.00 0.00 0.00 0.00 0.00 0.00 0.00 0.00 0.00 0.00
0.00 0.00 0.00 0.00 0.00 0.00 0.00 0.00 0.00 0.00 0.00 0.00 0.00 0.00 0.00 0.00 0.00 0.00 0.00 0.00 0.01 0.05 0.06 0.06 0.02 0.00 0.00 0.00 0.01 0.03 0.01 0.00 0.00 0.00 0.00 0.00 0.00 0.00 0.00 0.00 0.00 0.00 0.00 0.00 0.00 0.00 0.00 0.00 0.01
0.00 0.00 0.00 0.00 0.00 0.00 0.00 0.00 0.00 0.00 0.00 0.00 0.00 0.00 0.00 0.00 0.00 0.00 0.00 0.00 0.00 0.03 0.05 0.09 0.06 0.02 0.00 0.00 0.02 0.01 0.01 0.01 0.00 0.00 0.00 0.00 0.00 0.00 0.00 0.00 0.00 0.00 0.00 0.00 0.00 0.00 0.01 0.02 0.05
0.00 0.00 0.00 0.00 0.00 0.00 0.00 0.00 0.00 0.00 0.00 0.00 0.00 0.00 0.00 0.00 0.00 0.00 0.00 0.00 0.01 0.01 0.04 0.05 0.11 0.08 0.02 0.00 0.01 0.01 0.02 0.01 0.00 0.00 0.00 0.00 0.00 0.00 0.00 0.00 0.00 0.00 0.01 0.02 0.03 0.06 0.14 0.19 0.16
0.00 0.01 0.08 0.05 0.00 0.00 0.00 0.00 0.00 0.00 0.00 0.00 0.00 0.00 0.00 0.00 0.00 0.00 0.00 0.00 0.02 0.03 0.04 0.04 0.06 0.07 0.03 0.01 0.02 0.01 0.02 0.01 0.00 0.00 0.00 0.00 0.00 0.00 0.00 0.00 0.00 0.02 0.05 0.08 0.12 0.18 0.20 0.14 0.08
0.00 0.00 0.03 0.14 0.01 0.01 0.00 0.00 0.00 0.00 0.00 0.00 0.00 0.00 0.00 0.00 0.00 0.00 0.00 0.00 0.00 0.01 0.03 0.06 0.07 0.08 0.05 0.03 0.01 0.01 0.01 0.01 0.01 0.01 0.00 0.00 0.00 0.00 0.01 0.02 0.04 0.08 0.11 0.17 0.20 0.17 0.12 0.09 0.09
0.00 0.00 0.05 0.05 0.04 0.02 0.00 0.00 0.00 0.00 0.00 0.00 0.00 0.00 0.00 0.00 0.00 0.00 0.00 0.00 0.00 0.00 0.02 0.03 0.05 0.05 0.03 0.06 0.04 0.02 0.01 0.01 0.03 0.06 0.04 0.03 0.02 0.01 0.04 0.08 0.10 0.16 0.24 0.21 0.14 0.13 0.12 0.10 0.07
0.00 0.00 0.03 0.02 0.03 0.08 0.03 0.00 0.00 0.00 0.00 0.00 0.00 0.00 0.00 0.00 0.00 0.00 0.00 0.00 0.00 0.00 0.01 0.05 0.03 0.02 0.03 0.03 0.04 0.04 0.05 0.10 0.11 0.12 0.10 0.06 0.07 0.09 0.12 0.14 0.20 0.29 0.25 0.18 0.15 0.12 0.09 0.06 0.03
0.00 0.00 0.04 0.08 0.05 0.03 0.05 0.02 0.00 0.00 0.00 0.00 0.00 0.00 0.00 0.00 0.00 0.00 0.00 0.00 0.00 0.00 0.03 0.01 0.02 0.04 0.03 0.02 0.02 0.06 0.13 0.16 0.20 0.24 0.21 0.17 0.18 0.20 0.26 0.34 0.32 0.26 0.19 0.15 0.11 0.08 0.05 0.03 0.02
MSLP
1013.60 1012.98 1013.00 1013.03 1013.97 1013.93 1013.31 1012.09 1010.56 1009.67 1009.36 1008.52 1008.33 1008.26 1009.22 1009.94 1010.57 1011.80 1011.22 1011.55 1011.72 1012.56 1013.18 1013.69 1014.16 1014.67 1015.10 1015.53 1015.91 1016.29 1016.46 1016.71 1016.73 1017.01 1017.05 1017.17 1017.28 1017.46 1017.64 1017.66 1017.83 1017.89 1018.05 1018.23 1018.45 1018.60 1018.72 1018.79 1018.83
1013.44 1012.99 1013.04 1013.45 1014.06 1013.85 1012.96 1011.59 1010.30 1009.43 1008.70 1008.45 1008.86 1008.92 1009.55 1010.28 1010.46 1011.12 1011.60 1011.75 1011.73 1012.34 1013.10 1013.73 1014.13 1014.54 1014.97 1015.45 1015.93 1016.36 1016.50 1016.74 1016.92 1017.00 1017.21 1017.35 1017.46 1017.61 1017.66 1017.85 1017.94 1018.17 1018.33 1018.53 1018.66 1018.79 1018.85 1018.91 1018.95
1013.13 1013.31 1013.96 1013.98 1013.74 1013.05 1012.37 1010.88 1009.70 1008.93 1008.34 1008.35 1008.70 1009.19 1009.66 1009.95 1010.33 1010.66 1010.65 1011.42 1011.84 1012.59 1013.03 1013.61 1014.09 1014.57 1014.98 1015.35 1015.84 1016.25 1016.49 1016.75 1016.98 1017.15 1017.37 1017.59 1017.73 1017.77 1017.86 1018.05 1018.29 1018.43 1018.53 1018.64 1018.77 1018.93 1019.02 1019.08 1019.10
1013.50 1013.67 1014.32 1014.10 1013.36 1011.93 1011.04 1010.09 1009.39 1008.85 1008.14 1008.18 1008.73 1009.63 1009.84 1009.62 1009.76 1010.01 1010.79 1011.28 1011.96 1012.59 1013.17 1013.67 1014.02 1014.48 1014.93 1015.35 1015.76 1016.20 1016.48 1016.73 1016.96 1017.25 1017.43 1017.68 1017.87 1018.03 1018.16 1018.33 1018.39 1018.54 1018.57 1018.75 1018.94 1019.10 1019.22 1019.25 1019.25
1013.68 1014.26 1014.47 1014.00 1012.83 1011.56 1010.47 1009.90 1009.36 1008.89 1008.35 1008.21 1008.72 1009.52 1009.99 1009.89 1009.76 1010.14 1010.57 1011.26 1011.76 1012.61 1013.01 1013.63 1013.99 1014.42 1014.86 1015.26 1015.68 1016.02 1016.39 1016.70 1016.94 1017.23 1017.51 1017.76 1018.02 1018.22 1018.39 1018.54 1018.63 1018.79 1018.94 1019.04 1019.11 1019.24 1019.30 1019.34 1019.36
1014.42 1014.52 1014.69 1013.89 1012.64 1011.38 1010.37 1009.60 1009.26 1008.74 1008.21 1008.24 1008.79 1009.59 1010.09 1009.89 1010.23 1010.37 1010.73 1011.26 1011.61 1012.18 1012.87 1013.38 1013.94 1014.35 1014.72 1015.21 1015.59 1016.02 1016.29 1016.61 1016.91 1017.22 1017.54 1017.78 1018.08 1018.25 1018.46 1018.64 1018.76 1018.86 1019.03 1019.17 1019.27 1019.36 1019.37 1019.42 1019.49
1014.67 1014.97 1014.27 1013.46 1012.53 1011.27 1010.09 1009.13 1008.98 1008.22 1008.02 1008.01 1008.36 1009.64 1010.33 1010.33 1010.26 1010.55 1010.83 1011.33 1011.82 1012.09 1012.66 1013.26 1013.71 1014.19 1014.66 1015.12 1015.53 1015.94 1016.25 1016.48 1016.82 1017.18 1017.59 1017.85 1018.21 1018.46 1018.62 1018.84 1018.90 1019.00 1019.19 1019.35 1019.46 1019.49 1019.54 1019.53 1019.62
1014.43 1014.58 1014.15 1013.27 1012.49 1010.75 1009.81 1009.36 1008.74 1008.41 1007.85 1007.46 1007.85 1009.13 1010.03 1009.93 1010.30 1010.56 1011.30 1011.51 1011.93 1012.37 1012.80 1013.12 1013.62 1013.99 1014.48 1014.93 1015.39 1015.85 1016.22 1016.48 1016.72 1017.11 1017.56 1017.96 1018.17 1018.47 1018.75 1019.02 1019.10 1019.15 1019.33 1019.49 1019.58 1019.63 1019.72 1019.86 1019.93
1014.22 1014.46 1013.67 1012.73 1012.05 1010.62 1010.02 1009.89 1008.99 1008.26 1008.23 1008.01 1008.21 1008.46 1008.46 1009.07 1010.26 1010.80 1011.51 1011.95 1012.18 1012.39 1012.68 1013.06 1013.45 1013.83 1014.20 1014.76 1015.27 1015.70 1016.12 1016.57 1016.83 1017.18 1017.65 1018.10 1018.36 1018.51 1018.77 1018.97 1019.11 1019.26 1019.34 1019.57 1019.70 1019.74 1019.88 1020.23 1020.45
1014.77 1014.13 1013.17 1012.41 1011.80 1011.23 1010.61 1010.36 1009.85 1009.29 1008.76 1008.55 1008.82 1008.82 1008.64 1009.23 1009.93 1010.40 1010.91 1011.38 1011.72 1012.10 1012.43 1012.70 1013.25 1013.60 1013.99 1014.43 1015.15 1015.51 1016.07 1016.57 1016.93 1017.28 1017.77 1018.13 1018.42 1018.68 1018.85 1019.09 1019.16 1019.26 1019.33 1019.48 1019.66 1019.80 1019.99 1020.49 1020.90
1014.86 1014.32 1013.56 1012.89 1012.42 1012.00 1011.34 1010.53 1010.00 1009.71 1009.34 1009.07 1009.00 1008.84 1009.00 1009.29 1009.88 1010.14 1010.50 1010.81 1010.72 1011.40 1011.95 1012.26 1012.65 1013.32 1013.74 1014.09 1014.66 1015.31 1015.90 1016.42 1016.93 1017.27 1017.66 1018.16 1018.51 1018.66 1018.90 1019.19 1019.30 1019.48 1019.66 1019.77 1020.01 1020.21 1020.50 1020.82 1021.14
1016.08 1014.93 1014.80 1014.09 1013.52 1012.92 1012.18 1011.51 1010.36 1009.90 1009.40 1009.08 1009.17 1008.96 1008.75 1009.21 1009.28 1009.44 1009.82 1010.34 1010.85 1011.12 1011.43 1011.81 1012.20 1012.60 1013.19 1013.82 1014.18 1014.83 1015.39 1016.13 1016.58 1017.03 1017.53 1018.03 1018.57 1018.84 1019.01 1019.16 1019.35 1019.58 1019.76 1020.04 1020.32 1020.58 1020.87 1021.23 1021.52
1016.50 1016.15 1015.32 1014.75 1014.08 1013.28 1012.48 1011.74 1011.13 1009.71 1009.70 1009.16 1009.17 1009.15 1009.16 1008.97 1008.91 1009.04 1009.20 1009.88 1010.59 1011.14 1011.40 1011.61 1011.94 1012.32 1012.65 1013.29 1014.00 1014.40 1014.64 1015.23 1015.93 1016.64 1017.03 1017.43 1018.05 1018.45 1018.70 1019.00 1019.18 1019.45 1019.69 1020.07 1020.55 1020.79 1021.30 1021.73 1022.01
1017.29 1016.59 1015.87 1014.93 1014.09 1013.20 1012.49 1011.27 1011.12 1009.81 1009.49 1009.26 1009.40 1009.38 1009.28 1008.98 1008.69 1008.88 1009.32 1009.62 1009.93 1010.36 1010.78 1011.37 1011.67 1012.10 1012.44 1012.90 1013.42 1014.17 1014.71 1015.14 1015.40 1015.92 1016.66 1017.09 1017.51 1017.96 1018.36 1018.68 1018.86 1019.16 1019.42 1019.95 1020.41 1020.92 1021.54 1022.17 1022.46
1017.59 1017.14 1016.00 1015.16 1014.76 1013.83 1012.80 1011.04 1010.17 1010.11 1009.85 1009.26 1009.10 1009.22 1009.06 1008.87 1008.56 1008.68 1008.35 1008.61 1009.18 1009.70 1010.26 1010.62 1011.26 1011.89 1012.26 1012.54 1012.96 1013.53 1014.25 1014.73 1015.24 1015.38 1015.71 1016.42 1016.70 1017.29 1017.81 1018.34 1018.81 1019.01 1019.43 1019.96 1020.62 1021.35 1021.90 1022.48 1022.91
1018.25 1017.77 1017.38 1015.72 1015.23 1014.31 1014.11 1011.66 1011.30 1010.20 1010.49 1010.08 1009.37 1009.00 1008.90 1008.42 1008.15 1008.11 1008.00 1008.01 1008.33 1008.99 1009.80 1010.38 1010.65 1011.20 1011.73 1012.11 1012.61 1013.12 1013.59 1014.01 1014.73 1015.14 1015.38 1015.94 1016.19 1016.61 1017.15 1017.79 1018.33 1018.82 1019.39 1019.94 1020.70 1021.51 1022.39 1022.89 1023.31
1019.43 1019.31 1018.48 1017.12 1015.81 1015.25 1014.74 1012.65 1012.14 1011.15 1010.64 1010.20 1009.64 1009.04 1008.91 1008.72 1008.12 1007.62 1007.43 1007.58 1007.81 1008.00 1008.57 1009.65 1010.18 1010.71 1011.23 1011.81 1012.26 1012.70 1013.24 1013.47 1014.15 1014.70 1015.07 1015.53 1015.92 1016.41 1017.04 1017.51 1018.10 1018.64 1019.36 1019.97 1020.70 1021.82 1022.22 1023.24 1023.71
1020.35 1019.85 1018.89 1018.00 1016.41 1015.38 1014.65 1012.40 1012.24 1011.74 1010.85 1009.90 1009.28 1008.87 1008.43 1008.03 1007.93 1007.51 1007.11 1006.91 1007.05 1007.36 1007.69 1008.42 1009.28 1010.14 1010.90 1011.42 1012.33 1012.58 1013.21 1013.70 1014.04 1014.40 1014.96 1015.35 1015.87 1016.26 1016.86 1017.39 1017.98 1018.64 1019.25 1020.23 1021.05 1021.81 1022.78 1023.17 1023.61
1020.35 1019.92 1019.15 1017.85 1016.61 1015.88 1014.86 1012.66 1012.10 1011.31 1010.52 1009.79 1009.12 1008.61 1007.82 1007.58 1006.94 1006.60 1006.58 1006.54 1006.66 1006.51 1007.31 1008.00 1008.65 1009.26 1010.16 1011.02 1011.84 1012.67 1013.30 1014.05 1014.53 1014.79 1015.00 1015.31 1015.95 1016.26 1016.82 1017.27 1018.12 1018.86 1019.24 1019.99 1020.94 1021.89 1022.62 1023.53 1023.79
1020.00 1019.76 1018.76 1017.53 1016.63 1016.13 1014.47 1012.77 1011.65 1010.54 1009.65 1009.22 1008.70 1008.20 1007.81 1007.26 1006.80 1006.29 1006.11 1005.97 1006.16 1006.25 1006.20 1006.96 1007.71 1008.45 1009.22 1010.05 1010.95 1011.91 1013.18 1014.36 1014.76 1015.24 1015.58 1015.72 1016.05 1016.38 1016.91 1017.60 1018.48 1019.18 1019.74 1020.43 1020.97 1021.46 1022.50 1023.34 1023.69
1019.52 1019.47 1018.82 1017.97 1016.75 1015.82 1014.73 1012.69 1011.77 1009.66 1009.33 1008.75 1008.31 1007.66 1007.26 1006.92 1006.55 1006.04 1005.74 1005.27 1005.39 1005.60 1005.81 1006.18 1006.76 1007.48 1008.22 1009.33 1010.95 1012.32 1013.33 1014.62 1015.38 1015.81 1016.22 1016.54 1016.48 1016.79 1017.36 1018.05 1018.62 1019.55 1019.93 1020.51 1020.96 1021.54 1021.92 1022.80 1023.92
1019.67 1018.95 1018.52 1017.84 1017.61 1016.89 1015.90 1014.40 1011.68 1010.12 1009.62 1009.27 1008.87 1008.37 1007.70 1006.97 1006.29 1005.81 1005.58 1005.11 1004.92 1005.00 1005.37 1005.21 1005.78 1006.72 1007.61 1008.57 1009.86 1011.00 1012.33 1013.77 1014.84 1015.71 1016.50 1017.08 1017.23 1017.45 1018.10 1018.53 1019.12 1019.82 1020.43 1020.90 1021.24 1021.57 1021.99 1022.50 1023.87
1019.55 1018.77 1018.40 1017.94 1017.64 1017.54 1015.71 1015.81 1011.52 1010.90 1010.07 1009.80 1009.43 1009.04 1008.51 1008.03 1007.41 1006.76 1006.17 1004.74 1004.17 1004.24 1004.80 1005.34 1005.45 1005.93 1006.82 1008.07 1008.96 1010.24 1011.55 1013.11 1014.50 1015.97 1016.71 1017.96 1017.89 1018.23 1019.09 1019.02 1019.62 1020.28 1020.92 1021.41 1021.73 1022.24 1022.79 1023.19 1024.10
1019.35 1019.10 1018.08 1017.83 1017.91 1017.73 1015.97 1015.66 1011.82 1011.09 1010.63 1010.09 1009.61 1009.29 1008.96 1008.26 1007.75 1007.22 1006.34 1005.22 1003.94 1003.61 1004.12 1004.90 1005.40 1005.73 1006.36 1007.59 1008.59 1009.38 1010.92 1012.94 1014.61 1016.07 1016.98 1018.26 1018.66 1019.13 1019.71 1019.73 1020.35 1021.00 1021.58 1021.95 1022.54 1023.12 1023.71 1024.30 1024.92
1019.92 1020.06 1019.64 1019.40 1018.70 1017.54 1015.68 1014.98 1011.75 1010.85 1010.45 1010.40 1010.02 1009.37 1008.94 1008.72 1008.06 1007.66 1007.17 1006.18 1005.11 1004.19 1003.85 1004.17 1004.86 1005.06 1006.03 1007.07 1008.13 1008.95 1010.43 1011.71 1013.34 1014.94 1016.49 1017.92 1018.72 1019.72 1020.31 1020.33 1021.04 1021.66 1022.47 1022.62 1023.03 1023.69 1024.62 1025.23 1025.77
1020.62 1020.92 1021.12 1020.29 1019.16 1016.96 1015.20 1013.84 1011.18 1010.62 1010.48 1010.48 1010.30 1009.95 1009.22 1008.25 1008.23 1007.86 1007.62 1006.84 1005.68 1004.91 1004.34 1003.87 1004.12 1004.92 1005.56 1006.72 1007.81 1009.06 1010.30 1011.58 1013.12 1014.43 1015.93 1017.40 1018.41 1019.81 1020.75 1021.16 1021.85 1022.36 1023.12 1023.39 1023.97 1024.52 1025.24 1026.02 1026.58
1020.72 1020.86 1020.47 1019.76 1018.61 1017.63 1014.84 1012.75 1010.90 1010.45 1010.18 1009.84 1009.45 1009.40 1009.07 1008.60 1008.09 1007.80 1007.37 1006.97 1006.08 1005.22 1004.82 1004.13 1004.34 1004.59 1005.34 1006.10 1007.57 1009.00 1010.32 1011.49 1013.08 1014.68 1015.97 1017.40 1018.72 1019.81 1020.99 1021.87 1022.65 1023.36 1024.05 1024.53 1024.54 1025.16 1026.07 1026.71 1027.17
1020.67 1020.63 1020.58 1020.26 1019.33 1017.36 1014.71 1013.26 1011.57 1011.16 1011.06 1010.93 1010.52 1010.13 1009.39 1008.81 1008.25 1007.56 1007.14 1006.49 1005.85 1005.26 1004.71 1004.22 1003.93 1004.40 1005.38 1006.32 1007.48 1008.85 1010.35 1011.80 1013.15 1014.64 1015.94 1017.46 1018.83 1020.02 1021.75 1022.55 1023.40 1024.17 1024.83 1025.23 1025.83 1026.15 1027.11 1027.32 1027.83
1021.33 1020.94 1021.12 1020.91 1019.76 1017.86 1015.61 1012.94 1011.70 1011.63 1011.18 1010.89 1010.77 1010.34 1009.51 1008.73 1008.15 1007.65 1006.85 1006.18 1005.40 1004.52 1004.07 1003.78 1003.38 1004.26 1005.63 1006.97 1008.34 1009.69 1011.19 1012.45 1013.71 1014.97 1016.60 1017.86 1019.20 1020.56 1022.22 1023.12 1023.97 1024.44 1025.08 1025.85 1026.85 1027.29 1027.44 1028.07 1028.39
1021.38 1021.18 1021.57 1020.97 1019.65 1018.47 1016.82 1013.05 1011.60 1011.51 1011.56 1011.56 1011.12 1010.48 1009.89 1008.93 1008.05 1007.40 1006.69 1005.86 1004.94 1003.53 1002.91 1002.99 1003.46 1004.66 1006.25 1007.67 1009.05 1010.66 1012.05 1013.49 1014.37 1015.54 1016.78 1018.65 1019.88 1021.18 1022.50 1023.49 1024.52 1025.35 1025.77 1026.81 1027.15 1027.48 1028.18 1028.39 1028.68
Thickness
5694 5701 5702 5699 5675 5671 5667 5682 5708 5714 5711 5729 5734 5735 5726 5725 5721 5700 5729 5729 5727 5721 5716 5712 5708 5705 5703 5701 5699 5697 5696 5696 5696 5695 5695 5694 5694 5693 5691 5691 5689 5689 5688 5686 5685 5684 5683 5683 5683
5692 5698 5696 5685 5664 5659 5660 5685 5702 5712 5725 5728 5727 5725 5722 5714 5727 5721 5721 5725 5726 5721 5715 5710 5707 5704 5702 5700 5697 5695 5695 5693 5693 5692 5691 5690 5690 5689 5689 5687 5686 5684 5684 5682 5681 5681 5680 5680 5679
5692 5692 5676 5669 5663 5667 5664 5697 5711 5718 5729 5728 5725 5726 5721 5717 5727 5725 5732 5727 5722 5717 5714 5710 5707 5703 5700 5698 5696 5694 5693 5692 5690 5689 5688 5686 5686 5685 5685 5683 5682 5680 5680 5679 5678 5677 5676 5676 5675
5683 5680 5670 5661 5664 5685 5686 5698 5711 5716 5728 5732 5724 5712 5723 5731 5731 5734 5729 5726 5720 5715 5710 5708 5705 5702 5699 5697 5695 5692 5691 5690 5688 5686 5685 5684 5682 5681 5680 5679 5678 5678 5677 5676 5674 5673 5672 5671 5672
5678 5666 5654 5657 5670 5685 5695 5702 5706 5709 5716 5723 5723 5709 5712 5724 5735 5733 5728 5724 5719 5713 5709 5705 5703 5700 5698 5696 5694 5692 5689 5688 5686 5685 5683 5681 5679 5677 5676 5675 5674 5673 5671 5671 5669 5668 5668 5668 5668
5661 5659 5646 5651 5667 5684 5690 5698 5701 5707 5715 5715 5712 5704 5708 5723 5724 5727 5724 5720 5718 5713 5708 5705 5701 5699 5697 5694 5692 5690 5688 5685 5683 5682 5680 5679 5677 5675 5673 5672 5671 5670 5668 5666 5666 5665 5666 5666 5665
5654 5645 5648 5657 5665 5677 5688 5701 5694 5703 5707 5707 5713 5696 5705 5712 5719 5720 5721 5715 5712 5711 5707 5703 5701 5698 5695 5692 5690 5687 5686 5684 5681 5678 5676 5674 5672 5670 5669 5667 5667 5666 5665 5663 5662 5662 5662 5662 5660
5654 5648 5649 5657 5662 5675 5689 5692 5701 5699 5702 5718 5714 5691 5695 5709 5710 5712 5711 5711 5706 5704 5703 5701 5697 5696 5693 5691 5688 5685 5682 5681 5679 5676 5673 5671 5670 5667 5665 5663 5663 5663 5661 5660 5659 5658 5657 5656 5655
5658 5641 5642 5658 5662 5678 5683 5679 5690 5705 5700 5707 5706 5706 5716 5712 5705 5702 5700 5700 5699 5699 5698 5696 5695 5693 5691 5688 5686 5683 5679 5676 5675 5673 5670 5667 5665 5664 5663 5661 5660 5659 5658 5656 5654 5654 5653 5650 5649
5639 5639 5652 5665 5668 5668 5673 5671 5675 5681 5687 5692 5691 5699 5708 5705 5700 5699 5698 5697 5697 5695 5695 5695 5691 5690 5688 5685 5681 5680 5676 5672 5670 5669 5665 5663 5661 5659 5659 5657 5656 5656 5655 5653 5651 5651 5650 5647 5642
5637 5635 5650 5656 5659 5659 5663 5665 5674 5673 5673 5681 5682 5689 5694 5696 5693 5694 5696 5697 5701 5697 5695 5694 5692 5686 5684 5683 5679 5676 5673 5670 5667 5665 5662 5659 5657 5657 5655 5653 5652 5651 5648 5648 5647 5645 5643 5641 5636
5617 5629 5626 5635 5637 5641 5645 5655 5661 5666 5672 5681 5680 5686 5690 5689 5692 5694 5695 5693 5693 5693 5693 5694 5693 5689 5685 5680 5680 5675 5672 5668 5665 5663 5660 5656 5653 5653 5652 5651 5649 5647 5644 5642 5642 5639 5636 5633 5629
5612 5612 5616 5619 5625 5630 5637 5641 5647 5660 5665 5671 5675 5676 5678 5685 5688 5691 5692 5688 5686 5686 5686 5687 5688 5686 5685 5681 5676 5674 5673 5669 5665 5662 5660 5657 5653 5651 5649 5648 5646 5643 5640 5637 5635 5633 5628 5624 5621
5595 5599 5603 5610 5614 5620 5625 5639 5640 5655 5656 5660 5662 5662 5667 5673 5680 5682 5679 5679 5681 5683 5683 5681 5681 5680 5679 5678 5675 5669 5666 5664 5662 5661 5657 5654 5651 5648 5646 5643 5642 5640 5637 5632 5629 5625 5620 5614 5611
5586 5583 5589 5597 5597 5604 5613 5630 5639 5643 5646 5648 5653 5655 5658 5663 5670 5672 5678 5680 5677 5678 5676 5677 5675 5674 5673 5673 5672 5668 5663 5661 5658 5659 5658 5652 5650 5647 5643 5638 5634 5634 5631 5626 5621 5616 5610 5604 5600
5570 5571 5558 5581 5581 5589 5589 5607 5618 5627 5623 5630 5640 5648 5650 5656 5662 5665 5669 5673 5675 5672 5669 5670 5672 5670 5669 5668 5666 5662 5660 5660 5655 5653 5655 5652 5649 5646 5642 5636 5633 5629 5624 5619 5614 5607 5598 5593 5590
5541 5534 5540 5554 5564 5567 5571 5587 5598 5608 5611 5618 5624 5632 5636 5642 5652 5660 5663 5664 5667 5670 5668 5663 5665 5664 5664 5663 5661 5659 5656 5656 5653 5651 5650 5648 5645 5641 5637 5633 5629 5624 5617 5612 5607 5597 5593 5582 5577
5523 5522 5529 5528 5551 5553 5556 5580 5585 5587 5596 5607 5615 5620 5628 5635 5639 5650 5655 5659 5662 5665 5665 5663 5661 5658 5657 5656 5652 5653 5650 5648 5648 5647 5643 5640 5638 5635 5631 5627 5623 5618 5611 5604 5598 5590 5581 5577 5572
5514 5508 5506 5522 5534 5532 5541 5566 5570 5577 5585 5593 5602 5610 5620 5624 5635 5642 5651 5653 5653 5660 5657 5655 5653 5654 5651 5647 5644 5643 5643 5636 5635 5636 5634 5633 5629 5628 5624 5621 5615 5609 5606 5598 5590 5582 5574 5565 5561
5502 5494 5497 5511 5517 5520 5533 5549 5559 5569 5575 5579 5588 5597 5605 5613 5620 5630 5637 5646 5648 5651 5658 5654 5652 5650 5650 5647 5643 5638 5633 5625 5625 5624 5623 5624 5622 5619 5616 5611 5604 5597 5593 5587 5582 5576 5566 5557 5552
5490 5482 5480 5486 5501 5505 5504 5529 5537 5558 5556 5566 5570 5582 5592 5602 5609 5617 5625 5636 5643 5645 5648 5651 5650 5649 5647 5644 5633 5625 5621 5615 5613 5612 5610 5609 5610 5608 5603 5598 5593 5586 5583 5578 5573 5566 5562 5553 5540
5469 5477 5472 5471 5467 5455 5483 5490 5520 5531 5536 5545 5551 5560 5572 5584 5596 5605 5611 5623 5633 5639 5640 5649 5649 5644 5641 5640 5634 5630 5625 5617 5609 5602 5598 5596 5594 5594 5589 5587 5581 5575 5569 5565 5560 5555 5550 5544 5530
5456 5463 5457 5455 5451 5445 5466 5460 5497 5514 5526 5523 5527 5539 5546 5557 5569 5579 5592 5613 5625 5633 5632 5634 5640 5641 5637 5632 5631 5628 5623 5611 5600 5592 5588 5580 5582 5581 5573 5572 5567 5561 5556 5550 5546 5540 5533 5528 5518
5455 5451 5455 5443 5446 5439 5453 5439 5492 5496 5502 5505 5515 5522 5530 5539 5548 5559 5574 5594 5616 5624 5627 5624 5627 5631 5629 5625 5622 5623 5617 5601 5589 5581 5577 5569 5567 5564 5558 5557 5552 5547 5541 5536 5529 5522 5517 5510 5502
5442 5421 5380 5389 5387 5405 5464 5456 5488 5492 5494 5494 5497 5507 5514 5521 5531 5539 5550 5567 5585 5606 5617 5619 5622 5624 5623 5620 5615 5614 5611 5605 5591 5582 5572 5563 5558 5552 5547 5546 5538 5532 5525 5522 5517 5510 5501 5493 5486
5433 5421 5424 5431 5401 5450 5475 5452 5491 5493 5491 5487 5488 5489 5498 5509 5515 5523 5532 5546 5565 5581 5603 5611 5615 5615 5616 5612 5607 5602 5601 5597 5585 5577 5568 5558 5552 5542 5533 5530 5524 5519 5511 5508 5502 5495 5488 5479 5470
5418 5412 5441 5435 5417 5435 5452 5477 5497 5495 5489 5487 5491 5484 5486 5493 5501 5509 5521 5530 5545 5561 5574 5596 5600 5604 5609 5608 5599 5591 5588 5586 5577 5567 5559 5549 5541 5533 5524 5515 5508 5502 5495 5489 5488 5481 5471 5461 5452
5435 5440 5423 5410 5431 5437 5453 5453 5478 5469 5470 5471 5474 5470 5477 5483 5487 5496 5505 5520 5534 5548 5561 5579 5592 5596 5597 5596 5589 5583 5576 5573 5567 5559 5553 5543 5531 5523 5509 5503 5496 5487 5480 5474 5467 5461 5450 5444 5435
5406 5406 5419 5418 5426 5446 5444 5467 5475 5462 5468 5463 5462 5463 5469 5474 5478 5483 5493 5509 5524 5541 5554 5568 5584 5585 5582 5577 5572 5566 5559 5557 5554 5549 5537 5529 5522 5510 5498 5489 5482 5476 5467 5457 5447 5440 5436 5427 5420
5433 5428 5411 5411 5425 5429 5432 5457 5472 5467 5458 5449 5447 5451 5454 5461 5467 5472 5484 5499 5516 5540 5557 5567 5569 5568 5563 5559 5554 5548 5543 5538 5539 5536 5530 5514 5508 5497 5487 5476 5467 5458 5452 5442 5436 5430 5421 5415 5410